| time (UTC) | temp F | wind direction | speed MPH | gust MPH | rain 1hr in | rain 24hr in | rain mn in | humidity % | barometer mb |
| 20260506150115 | 54 | 360 | 5.0 | 11.0 | 0.00 | 0.00 | 0.00 | 67 | 1017.5 |
| 20260506144512 | 54 | 117 | 4.0 | 10.0 | 0.00 | 0.00 | 0.00 | 67 | 1017.7 |
| 20260506143032 | 53 | 13 | 2.0 | 8.0 | 0.00 | 0.00 | 0.00 | 70 | 1017.6 |
| 20260506141506 | 52 | 5 | 4.0 | 12.0 | 0.00 | 0.00 | 0.00 | 70 | 1017.3 |
| 20260506140112 | 51 | 21 | 4.0 | 9.0 | 0.00 | 0.00 | 0.00 | 72 | 1017.8 |
| 20260506134558 | 51 | 52 | 2.0 | 10.0 | 0.00 | 0.00 | 0.00 | 73 | 1017.7 |
| 20260506133058 | 50 | 66 | 5.0 | 12.0 | 0.00 | 0.00 | 0.00 | 74 | 1017.7 |
| 20260506131558 | 50 | 89 | 3.0 | 14.0 | 0.00 | 0.00 | 0.00 | 75 | 1017.7 |
| 20260506130123 | 50 | 10 | 5.0 | 16.0 | 0.00 | 0.00 | 0.00 | 75 | 1017.4 |
| 20260506124553 | 50 | 344 | 7.0 | 16.0 | 0.00 | 0.00 | 0.00 | 77 | 1017.1 |
| 20260506123051 | 49 | 26 | 5.0 | 9.0 | 0.00 | 0.00 | 0.00 | 81 | 1017.2 |
| 20260506121551 | 49 | 52 | 3.0 | 9.0 | 0.00 | 0.00 | 0.00 | 82 | 1016.7 |
| 20260506120049 | 48 | 33 | 7.0 | 13.0 | 0.00 | 0.00 | 0.00 | 82 | 1016.7 |
| 20260506114548 | 48 | 35 | 5.0 | 12.0 | 0.00 | 0.00 | 0.00 | 82 | 1017.0 |
| 20260506113045 | 48 | 346 | 6.0 | 11.0 | 0.00 | 0.00 | 0.00 | 82 | 1017.0 |
| 20260506111542 | 48 | 9 | 5.0 | 10.0 | 0.00 | 0.00 | 0.00 | 82 | 1017.1 |
| 20260506110048 | 48 | 355 | 4.0 | 11.0 | 0.00 | 0.00 | 0.00 | 82 | 1016.7 |
| 20260506104536 | 48 | 5 | 6.0 | 10.0 | 0.00 | 0.00 | 0.00 | 82 | 1016.3 |
| 20260506103034 | 48 | 51 | 2.0 | 8.0 | 0.00 | 0.00 | 0.00 | 81 | 1016.3 |
| 20260506101547 | 48 | 360 | 4.0 | 9.0 | 0.00 | 0.00 | 0.00 | 81 | 1016.0 |
| 20260506100029 | 49 | 360 | 4.0 | 10.0 | 0.00 | 0.00 | 0.00 | 80 | 1015.7 |
| 20260506094527 | 49 | 13 | 4.0 | 10.0 | 0.00 | 0.00 | 0.00 | 80 | 1015.6 |
| 20260506093024 | 49 | 5 | 3.0 | 10.0 | 0.00 | 0.00 | 0.00 | 80 | 1015.1 |
| 20260506091524 | 49 | 22 | 3.0 | 8.0 | 0.00 | 0.00 | 0.00 | 80 | 1014.4 |
| 20260506090020 | 49 | 355 | 4.0 | 8.0 | 0.00 | 0.00 | 0.00 | 80 | 1014.1 |
| 20260506084520 | 49 | 5 | 4.0 | 8.0 | 0.00 | 0.00 | 0.00 | 80 | 1014.0 |
| 20260506083015 | 49 | 36 | 4.0 | 8.0 | 0.00 | 0.00 | 0.00 | 79 | 1013.6 |
| 20260506081515 | 49 | 5 | 2.0 | 6.0 | 0.00 | 0.00 | 0.00 | 78 | 1013.5 |
| 20260506073011 | 50 | 109 | 2.0 | 8.0 | 0.00 | 0.00 | 0.00 | 73 | 1013.5 |
| 20260506071514 | 50 | 76 | 4.0 | 14.0 | 0.00 | 0.00 | 0.00 | 73 | 1013.1 |
| 20260506061505 | 51 | 27 | 3.0 | 9.0 | 0.00 | 0.00 | 0.00 | 72 | 1013.4 |
| 20260506044600 | 50 | 41 | 6.0 | 13.0 | 0.00 | 0.00 | 0.00 | 73 | 1013.0 |
| 20260506043053 | 50 | 5 | 7.0 | 14.0 | 0.00 | 0.00 | 0.00 | 72 | 1013.2 |
| 20260506041604 | 51 | 9 | 6.0 | 15.0 | 0.00 | 0.00 | 0.00 | 71 | 1013.4 |
| 20260506040051 | 51 | 30 | 4.0 | 15.0 | 0.00 | 0.00 | 0.00 | 72 | 1013.4 |
| 20260506034549 | 51 | 44 | 4.0 | 12.0 | 0.00 | 0.01 | 0.00 | 73 | 1013.4 |
| 20260506033048 | 51 | 351 | 7.0 | 13.0 | 0.00 | 0.01 | 0.00 | 74 | 1013.0 |
| 20260506031547 | 51 | 355 | 4.0 | 11.0 | 0.00 | 0.01 | 0.00 | 76 | 1012.9 |
| 20260506030044 | 51 | 342 | 5.0 | 11.0 | 0.00 | 0.01 | 0.00 | 77 | 1012.7 |
| 20260506024543 | 51 | 336 | 5.0 | 14.0 | 0.00 | 0.01 | 0.00 | 76 | 1012.1 |
| 20260506023042 | 51 | 340 | 5.0 | 13.0 | 0.00 | 0.01 | 0.00 | 76 | 1011.8 |
| 20260506021537 | 51 | 15 | 5.0 | 12.0 | 0.00 | 0.01 | 0.00 | 76 | 1011.5 |
| 20260506020035 | 51 | 46 | 5.0 | 14.0 | 0.00 | 0.01 | 0.00 | 76 | 1011.0 |
| 20260506014544 | 51 | 329 | 3.0 | 11.0 | 0.00 | 0.01 | 0.00 | 76 | 1010.9 |
| 20260506013034 | 51 | 37 | 9.0 | 19.0 | 0.00 | 0.01 | 0.00 | 75 | 1010.4 |
| 20260506011533 | 51 | 11 | 6.0 | 16.0 | 0.00 | 0.01 | 0.00 | 76 | 1010.2 |
| 20260506010029 | 51 | 355 | 8.0 | 18.0 | 0.00 | 0.01 | 0.00 | 76 | 1010.1 |
| 20260506004536 | 51 | 349 | 6.0 | 15.0 | 0.00 | 0.01 | 0.00 | 76 | 1010.0 |
| 20260506003024 | 52 | 37 | 6.0 | 16.0 | 0.00 | 0.01 | 0.00 | 76 | 1010.1 |
| 20260506001521 | 52 | 355 | 6.0 | 15.0 | 0.00 | 0.01 | 0.00 | 75 | 1009.6 |
| 20260506000023 | 52 | 15 | 4.0 | 15.0 | 0.00 | 0.01 | 0.00 | 75 | 1010.0 |
| 20260505234520 | 52 | 19 | 6.0 | 14.0 | 0.00 | 0.01 | 0.00 | 74 | 1010.0 |
| 20260505233018 | 52 | 348 | 8.0 | 16.0 | 0.00 | 0.01 | 0.00 | 73 | 1009.7 |
| 20260505231514 | 53 | 5 | 9.0 | 19.0 | 0.00 | 0.01 | 0.00 | 71 | 1009.4 |
| 20260505230015 | 53 | 348 | 8.0 | 16.0 | 0.00 | 0.01 | 0.00 | 71 | 1009.3 |
| 20260505224508 | 53 | 22 | 10.0 | 17.0 | 0.00 | 0.01 | 0.00 | 71 | 1008.7 |
| 20260505223008 | 53 | 350 | 7.0 | 16.0 | 0.00 | 0.01 | 0.00 | 71 | 1008.8 |
| 20260505221506 | 53 | 33 | 9.0 | 21.0 | 0.00 | 0.01 | 0.00 | 71 | 1008.1 |
| 20260505220008 | 54 | 12 | 9.0 | 19.0 | 0.00 | 0.01 | 0.00 | 71 | 1008.6 |
| 20260505214608 | 54 | 337 | 6.0 | 16.0 | 0.00 | 0.01 | 0.00 | 71 | 1008.4 |
| 20260505213101 | 54 | 5 | 7.0 | 20.0 | 0.00 | 0.01 | 0.00 | 71 | 1008.2 |
| 20260505211613 | 54 | 19 | 8.0 | 19.0 | 0.00 | 0.01 | 0.00 | 72 | 1008.4 |
| 20260505210105 | 55 | 129 | 9.0 | 18.0 | 0.00 | 0.01 | 0.00 | 72 | 1008.0 |
| 20260505204550 | 55 | 57 | 7.0 | 23.0 | 0.00 | 0.01 | 0.00 | 72 | 1008.3 |
| 20260505203050 | 55 | 37 | 9.0 | 16.0 | 0.00 | 0.01 | 0.00 | 73 | 1008.0 |
| 20260505201553 | 55 | 12 | 10.0 | 20.0 | 0.00 | 0.01 | 0.00 | 74 | 1008.0 |
| 20260505200045 | 55 | 343 | 11.0 | 19.0 | 0.00 | 0.01 | 0.00 | 75 | 1008.0 |
| 20260505194545 | 54 | 355 | 9.0 | 21.0 | 0.00 | 0.01 | 0.00 | 76 | 1008.3 |
| 20260505193048 | 55 | 339 | 8.0 | 19.0 | 0.00 | 0.01 | 0.00 | 76 | 1007.9 |
| 20260505191549 | 55 | 22 | 11.0 | 19.0 | 0.00 | 0.01 | 0.00 | 76 | 1007.5 |
| 20260505190044 | 55 | 13 | 11.0 | 19.0 | 0.00 | 0.01 | 0.00 | 76 | 1007.3 |
| 20260505184540 | 55 | 26 | 7.0 | 18.0 | 0.00 | 0.01 | 0.00 | 77 | 1007.1 |
| 20260505183047 | 55 | 22 | 8.0 | 15.0 | 0.00 | 0.01 | 0.00 | 79 | 1007.2 |
| 20260505181535 | 55 | 340 | 8.0 | 17.0 | 0.00 | 0.01 | 0.00 | 80 | 1007.3 |
| 20260505180036 | 55 | 64 | 8.0 | 17.0 | 0.00 | 0.01 | 0.00 | 81 | 1006.6 |
| 20260505174536 | 55 | 76 | 6.0 | 16.0 | 0.00 | 0.01 | 0.00 | 82 | 1006.6 |
| 20260505173035 | 55 | 26 | 9.0 | 18.0 | 0.00 | 0.01 | 0.00 | 82 | 1006.3 |
| 20260505171529 | 55 | 38 | 6.0 | 18.0 | 0.00 | 0.01 | 0.00 | 83 | 1006.1 |
| 20260505170019 | 55 | 355 | 8.0 | 16.0 | 0.00 | 0.01 | 0.00 | 84 | 1005.7 |
| 20260505164531 | 56 | 26 | 8.0 | 21.0 | 0.00 | 0.01 | 0.00 | 84 | 1005.6 |
| 20260505163021 | 56 | 355 | 10.0 | 20.0 | 0.00 | 0.01 | 0.00 | 84 | 1005.3 |
| 20260505161513 | 56 | 360 | 7.0 | 19.0 | 0.00 | 0.01 | 0.00 | 84 | 1005.3 |
| 20260505153004 | 59 | 338 | 9.0 | 15.0 | 0.00 | 0.01 | 0.00 | 84 | 1004.5 |
| 20260505151600 | 60 | 355 | 12.0 | 20.0 | 0.00 | 0.01 | 0.00 | 83 | 1004.5 |
| 20260505151502 | 60 | 341 | 9.0 | 19.0 | 0.00 | 0.01 | 0.00 | 83 | 1004.5 |